Weather History for Oklahoma City Wiley Post, OK

Change the Weather History Date:

Thursday, July 4, 2013

  Actual Average Record
Temperature  
Mean Temperature 80 °F -  
Max Temperature 91 °F 91 °F 104 °F (1970)
Min Temperature 71 °F 70 °F 59 °F (1997)
Cooling Degree Days 16    
Growing Degree Days 30 (Base 50)    
Moisture  
Dew Point 53 °F    
Average Humidity 40    
Maximum Humidity 53    
Minimum Humidity 27    
Precipitation  
Precipitation 0.00 in - - ()
Sea Level Pressure  
Sea Level Pressure 29.95 in    
Wind  
Wind Speed 11 mph (SSE)    
Max Wind Speed 16 mph    
Max Gust Speed 23 mph    
Visibility 8 miles    
Events Thunderstorm    
Averages and records for this station are not official NWS values.
T = Trace of Precipitation, MM = Missing Value Source: NWS Daily Summary

Daily Weather History Graph

Daily Weather History Graph

Search for Another Location

Airport:

Trip Planner

Search our weather history database for the weather conditions in past years. The results will help you decide how hot, cold, wet, or windy it might be!

Date:

Astronomy

Jul. 04, 2013 Rise Set
Actual Time 6:20 AM CDT 8:49 PM CDT
Civil Twilight 5:50 AM CDT 9:19 PM CDT
Nautical Twilight 5:13 AM CDT 9:56 PM CDT
Astronomical Twilight 4:33 AM CDT 10:36 PM CDT
Moon 3:35 AM CDT (7/4) 5:57 PM CDT (7/4)
Length of Visible Light 15h 28m
Length of Day
14h 29m
Waning Crescent, 11% of the Moon is Illuminated
Jul 4
Waning Crescent
Jul 8
New
Jul 15
First Quarter
Jul 22
Full
Jul 29
Last Quarter

Hourly Weather History & Observations

Time (CDT) Temp. Heat Index Dew Point Humidity Pressure Visibility Wind Dir Wind Speed Gust Speed Precip Events Conditions
12:53 AM 75.9 °F - 48.0 °F 37% 29.96 in 9.0 mi SSE 9.2 mph - N/A   Clear
1:53 AM 75.0 °F - 48.9 °F 40% 29.96 in 9.0 mi SSE 10.4 mph - N/A   Clear
2:30 AM 75.2 °F - 48.2 °F 38% 30.01 in 9.0 mi SE 8.1 mph - N/A Thunderstorm Mostly Cloudy
2:45 AM 73.4 °F - 51.8 °F 47% 30.03 in 9.0 mi NE 11.5 mph - N/A   Mostly Cloudy
2:53 AM 75.9 °F - 48.9 °F 38% 29.99 in 9.0 mi ENE 13.8 mph 23.0 mph N/A   Overcast
3:05 AM 73.4 °F - 51.8 °F 47% 30.04 in 8.0 mi NE 15.0 mph - N/A   Overcast
3:53 AM 71.1 °F - 53.1 °F 53% 29.96 in 9.0 mi SE 11.5 mph - N/A   Clear
4:53 AM 73.0 °F - 50.0 °F 44% 29.96 in 9.0 mi South 12.7 mph - N/A   Mostly Cloudy
5:53 AM 71.1 °F - 51.1 °F 49% 29.97 in 9.0 mi SSE 9.2 mph - N/A   Clear
6:53 AM 72.0 °F - 51.1 °F 48% 29.96 in 7.0 mi South 13.8 mph - N/A   Clear
7:53 AM 73.0 °F - 54.0 °F 51% 29.97 in 6.0 mi South 11.5 mph - N/A   Haze
8:53 AM 77.0 °F - 55.9 °F 48% 30.00 in 6.0 mi SSW 11.5 mph - N/A   Haze
9:53 AM 79.0 °F - 57.0 °F 47% 29.99 in 6.0 mi SSW 11.5 mph - N/A   Haze
10:53 AM 81.0 °F 81.0 °F 57.0 °F 44% 29.98 in 6.0 mi SW 10.4 mph - N/A   Haze
11:53 AM 84.9 °F 83.9 °F 57.0 °F 38% 29.97 in 7.0 mi South 11.5 mph - N/A   Clear
12:53 PM 87.1 °F 85.3 °F 55.0 °F 33% 29.96 in 7.0 mi SSW 11.5 mph 17.3 mph N/A   Clear
1:53 PM 88.0 °F 85.7 °F 53.1 °F 30% 29.94 in 7.0 mi South 8.1 mph - N/A   Clear
2:53 PM 90.0 °F 87.7 °F 54.0 °F 29% 29.92 in 7.0 mi South 9.2 mph 17.3 mph N/A   Clear
3:53 PM 90.0 °F - 52.0 °F 27% 29.91 in 8.0 mi South 8.1 mph - N/A   Clear
4:53 PM 89.1 °F - 51.1 °F 27% 29.89 in 7.0 mi South 12.7 mph 18.4 mph N/A   Clear
5:53 PM 89.1 °F - 51.1 °F 27% 29.88 in 7.0 mi SSE 9.2 mph 19.6 mph N/A   Clear
6:53 PM 87.1 °F - 51.1 °F 29% 29.88 in 8.0 mi South 8.1 mph - N/A   Clear
7:53 PM 86.0 °F - 52.0 °F 31% 29.88 in 7.0 mi SE 13.8 mph - N/A   Clear
8:53 PM 84.0 °F 82.9 °F 55.0 °F 37% 29.88 in 7.0 mi SE 12.7 mph - N/A   Scattered Clouds
9:53 PM 82.0 °F 81.6 °F 55.9 °F 41% 29.90 in 8.0 mi SE 13.8 mph - N/A   Partly Cloudy
10:53 PM 79.0 °F - 57.0 °F 47% 29.92 in 7.0 mi SE 16.1 mph - N/A   Clear
11:53 PM 78.1 °F - 57.0 °F 48% 29.92 in 7.0 mi SE 16.1 mph - N/A   Clear